Theta_e
296 296 296 296 296 297 298 298 298 299 300 301 303 303 303 303 304 305 305 306 305 304 303 304 303 303 304 304 304 305 306 306 306 306 306 306 306 306 306 306 307 307 307 308 308 309 310 308 306 307 307 306 306 306 307 307 308 311 312 312 314 317 320 318 316 315 314 314 314 314 313 312 313 314 314 315 317 323 334 339 333 322 318 321 318 318 332
295 296 296 296 295 296 297 297 297 298 300 301 303 304 304 304 304 305 305 306 305 304 304 305 304 304 305 304 304 305 305 306 306 306 306 307 307 307 307 307 308 308 307 308 309 310 311 311 308 307 309 308 306 306 306 307 308 311 313 315 318 320 323 323 318 314 314 316 316 313 312 313 316 319 316 313 317 320 327 331 326 321 322 323 319 322 334
294 295 296 295 295 295 297 297 297 298 300 302 303 304 304 304 305 305 305 306 305 304 304 304 304 304 304 304 304 304 305 306 306 306 306 307 308 309 309 309 309 308 308 309 310 309 311 311 309 309 309 309 308 306 306 308 308 309 311 316 321 322 327 333 330 320 315 316 318 318 317 314 316 319 316 313 315 315 321 324 319 321 326 322 323 333 337
294 295 295 295 295 295 296 297 297 298 300 302 303 304 304 305 305 305 305 305 304 304 303 302 302 303 303 304 305 305 306 307 306 306 307 307 307 309 310 309 309 310 310 311 311 310 310 310 310 310 309 310 310 306 308 308 307 310 311 314 322 326 326 333 336 328 321 319 322 323 319 315 315 316 315 315 316 319 325 323 319 325 329 322 325 336 338
294 294 295 295 295 295 296 297 297 298 300 302 303 304 304 305 305 305 305 305 305 304 303 302 302 302 303 305 306 306 306 307 308 308 308 308 308 309 310 309 310 312 312 313 314 312 310 310 311 311 311 313 311 308 310 309 308 312 312 314 325 328 323 327 331 328 325 322 319 318 316 317 319 317 316 317 319 324 325 323 325 328 325 321 325 335 340
294 294 294 295 295 295 296 297 297 297 299 302 303 303 304 305 305 305 305 305 305 306 305 304 303 303 303 303 305 306 306 309 310 310 309 309 309 311 312 310 310 312 313 314 317 315 313 313 315 315 314 314 311 309 310 309 309 313 312 316 325 324 321 324 321 321 326 324 319 317 316 320 321 318 320 320 320 324 325 330 337 329 321 326 331 333 339
295 294 293 294 295 296 296 296 297 297 298 301 302 302 303 303 303 304 304 305 305 305 305 305 306 305 304 304 305 306 308 310 311 312 311 311 310 311 313 314 313 313 313 314 317 316 314 315 317 317 315 314 313 313 312 310 310 313 314 317 321 320 323 325 320 323 329 324 322 323 319 317 317 318 323 323 324 330 329 331 337 330 326 336 336 332 336
295 295 294 294 294 295 295 296 297 297 297 299 302 302 301 301 302 302 303 304 304 305 305 306 307 306 305 306 307 307 308 310 310 311 312 313 312 311 314 316 315 314 314 315 317 318 315 315 317 317 316 317 318 319 318 314 312 315 317 317 316 320 326 326 326 328 327 323 325 328 325 320 315 316 322 321 320 326 325 323 327 328 327 330 332 334 335
295 295 295 294 294 295 295 296 296 296 297 298 300 301 301 301 302 302 302 303 305 306 306 305 307 308 306 307 309 309 310 310 310 311 312 313 314 314 314 316 316 316 316 317 318 317 316 316 316 315 315 317 318 317 317 315 314 316 319 318 317 323 327 327 330 329 324 323 327 330 330 324 315 315 320 319 317 319 324 325 327 330 331 328 330 336 335
295 295 295 294 294 294 295 295 295 296 296 296 297 300 300 300 301 301 302 303 305 305 305 305 307 309 307 307 310 311 310 310 311 313 314 313 313 314 314 316 317 317 317 318 317 314 314 315 315 314 315 315 315 315 313 313 315 316 320 320 319 324 326 325 331 331 322 321 329 335 331 320 317 325 328 324 323 323 322 324 326 330 335 333 331 334 334
295 295 295 295 294 294 295 295 295 295 296 296 296 298 299 299 300 301 301 304 305 305 305 306 307 308 307 308 311 311 311 312 312 314 316 315 314 314 315 315 316 317 317 316 314 314 314 315 314 314 315 314 314 314 311 312 314 314 319 320 318 323 327 324 328 329 320 321 331 336 328 320 325 335 334 327 326 325 322 321 322 325 330 332 330 330 332
296 295 295 295 295 295 294 295 294 295 295 295 296 298 300 300 300 301 302 304 305 305 305 306 306 307 307 308 311 312 313 313 313 314 315 316 315 315 315 314 315 318 317 313 314 315 314 315 317 316 315 314 313 313 313 314 313 312 314 317 319 324 326 323 323 325 323 326 330 325 322 328 334 338 336 331 328 328 329 328 326 325 328 333 332 331 333
296 296 295 295 295 295 294 294 294 294 295 295 296 299 301 301 301 301 302 304 305 305 305 305 305 306 307 308 310 313 313 312 312 313 314 315 316 316 315 315 315 316 315 313 314 316 315 319 324 320 316 318 317 313 316 317 315 313 313 316 323 327 327 324 322 322 324 325 327 327 327 329 333 333 333 330 326 326 327 324 322 323 326 331 333 332 332
297 296 296 296 295 295 295 295 294 295 295 295 296 299 301 301 301 301 301 303 304 304 305 306 306 306 307 307 309 312 312 311 312 313 314 315 317 317 315 315 316 315 316 315 315 316 318 321 326 321 319 324 320 312 317 318 316 319 318 318 325 328 325 322 320 322 326 326 328 332 327 322 326 328 325 323 322 326 330 326 321 322 324 326 331 333 332
297 297 296 296 296 295 295 295 295 295 295 294 295 299 301 302 301 301 301 302 304 304 306 306 306 306 306 307 309 311 313 312 312 313 313 313 315 316 314 315 316 314 315 316 315 319 319 318 321 321 319 321 317 312 317 317 313 318 322 319 322 324 323 323 320 321 328 332 330 327 323 324 332 333 329 325 320 325 337 333 324 324 323 321 328 333 332
297 297 297 296 296 296 295 295 295 295 295 294 295 299 301 302 302 302 302 302 304 306 306 305 305 306 306 307 308 311 313 314 314 315 316 314 314 315 315 315 315 314 315 316 317 320 320 317 320 322 318 316 315 312 315 316 313 316 321 320 320 321 323 329 328 322 323 331 331 325 323 328 333 334 335 326 317 322 333 329 326 329 323 319 325 331 330
297 297 297 297 296 296 296 296 295 295 295 294 295 298 301 301 301 302 302 302 303 305 305 305 305 305 306 308 309 310 312 313 314 316 318 316 314 314 315 314 314 314 315 319 320 320 321 320 321 324 320 316 316 313 312 315 314 314 318 320 320 321 323 325 326 322 320 323 324 323 324 325 325 331 332 322 316 321 324 324 331 332 322 319 323 326 327
297 297 297 297 296 296 296 296 296 295 294 294 294 297 299 300 300 301 301 301 302 304 305 305 304 304 306 308 309 309 310 311 312 314 316 315 314 315 315 314 315 315 316 321 322 320 320 320 319 321 321 318 320 319 314 313 315 315 318 318 318 320 321 320 323 323 320 320 319 320 325 326 324 327 324 317 317 322 324 329 333 327 322 323 323 322 327
298 297 297 297 297 296 296 296 296 295 294 294 294 295 297 299 299 299 299 300 301 303 304 303 303 304 306 307 307 308 308 309 311 312 315 317 315 315 315 313 316 317 315 319 323 319 318 320 318 319 322 322 323 322 317 314 314 315 316 318 319 319 318 319 322 320 319 322 323 323 324 323 323 324 320 318 324 329 330 332 329 322 324 325 321 322 329
299 298 298 297 297 297 296 296 296 295 295 294 293 294 296 297 297 297 298 299 299 300 303 303 304 304 305 305 306 307 307 308 310 311 314 316 315 316 319 317 316 317 316 319 322 319 318 321 320 319 321 323 322 321 321 322 320 315 314 318 322 320 317 320 325 323 320 321 321 323 326 324 322 324 322 322 329 332 329 326 324 324 326 323 319 323 328
299 299 299 298 298 297 296 296 296 296 295 295 294 293 295 296 295 296 298 299 298 299 303 303 303 303 305 306 307 308 308 308 309 310 311 314 315 318 320 317 316 317 318 319 320 319 318 320 321 320 320 321 321 320 321 325 324 319 317 317 317 317 318 323 326 324 321 321 320 323 327 324 322 325 326 324 326 326 324 323 324 326 325 321 321 324 326
300 300 299 298 298 298 297 297 296 296 295 295 294 293 294 295 295 296 297 299 298 299 301 302 303 305 307 308 307 308 308 308 308 309 309 311 314 316 316 315 315 316 316 317 319 319 319 319 320 321 321 321 321 322 321 322 322 321 320 318 317 317 319 323 323 319 319 323 325 323 322 320 320 324 325 324 324 323 324 325 326 326 324 323 323 325 327
301 300 300 299 298 298 297 297 297 296 295 295 294 293 293 293 295 295 295 296 298 300 301 303 305 307 308 307 306 307 307 307 309 311 310 312 314 314 313 315 315 314 313 316 318 318 319 319 318 319 322 320 319 322 323 321 319 320 321 321 319 317 317 321 324 322 320 322 323 323 321 320 321 323 323 324 324 323 324 325 326 326 326 325 325 326 327
301 301 300 300 299 299 298 297 297 297 295 295 294 293 292 293 294 294 294 295 298 301 304 305 305 306 307 306 306 307 307 308 310 311 311 312 314 315 315 314 315 315 314 316 317 316 317 318 317 319 322 320 318 322 324 321 319 321 325 327 324 319 318 321 324 325 325 323 324 324 322 320 320 322 323 324 324 323 323 325 326 327 327 326 326 327 327
301 301 301 300 300 299 298 298 297 297 296 295 294 293 292 292 293 292 293 295 298 300 303 305 306 306 305 305 305 307 308 309 310 310 311 311 312 315 315 313 314 315 315 315 317 316 316 317 318 319 320 318 318 321 322 321 321 321 323 325 323 319 319 322 325 327 326 323 320 320 320 319 320 322 322 323 324 324 324 324 326 326 326 327 327 327 326
302 301 301 301 300 300 299 298 298 297 296 295 294 293 292 292 292 292 293 297 299 301 301 304 307 305 305 305 306 308 308 308 308 309 309 311 311 312 313 312 313 315 314 315 317 316 316 317 319 321 321 319 319 320 321 322 322 322 322 322 321 319 320 321 322 324 324 321 318 318 320 321 321 321 322 322 323 323 323 324 325 326 326 327 326 326 326
302 301 301 301 301 300 299 298 298 297 295 294 294 292 292 293 294 295 297 300 302 304 304 304 307 305 304 305 306 307 307 307 309 309 309 310 310 311 312 312 313 314 314 315 317 316 315 315 317 319 320 319 318 320 322 323 323 323 324 322 321 321 322 323 323 325 327 326 323 321 322 324 322 321 322 322 321 321 322 323 325 325 326 326 326 326 327
302 301 300 301 301 300 299 298 297 296 295 294 293 293 296 298 300 302 303 303 304 304 304 304 305 306 305 305 305 306 307 308 309 310 310 309 310 311 312 312 312 313 314 315 316 316 316 316 316 317 317 316 317 320 320 318 319 322 324 323 321 320 321 324 328 330 329 327 322 318 320 323 322 321 322 322 321 322 322 322 323 324 325 326 326 325 325
301 301 300 300 300 300 299 298 296 294 293 293 292 295 301 305 304 305 306 305 303 303 302 303 305 305 304 304 305 306 308 309 309 309 310 310 309 310 311 312 311 311 313 314 315 315 315 315 314 315 317 317 320 322 320 318 320 325 324 321 319 318 319 321 324 325 324 321 319 318 320 321 321 321 321 321 321 322 322 322 323 323 324 325 325 325 324
301 301 301 300 300 300 299 297 294 292 292 292 291 293 301 305 305 305 306 305 303 302 302 302 304 303 302 303 305 306 308 308 309 309 309 308 309 309 310 311 310 310 311 314 315 314 313 313 313 316 318 316 317 320 320 319 324 327 322 316 317 318 319 319 320 321 321 319 319 320 321 321 321 321 321 321 322 322 322 322 322 323 324 325 325 325 324
300 301 301 300 300 301 299 296 294 292 292 293 292 292 297 304 306 307 306 304 302 300 299 299 301 301 302 303 304 306 308 308 308 309 308 308 308 309 309 309 310 310 311 313 314 312 313 313 314 316 317 315 315 318 320 321 324 326 320 316 317 318 318 319 320 320 320 320 319 321 321 321 321 321 320 321 321 321 321 322 322 322 323 323 323 324 324
299 301 300 299 300 301 299 295 294 294 293 293 292 292 294 297 301 303 301 299 298 297 296 298 302 304 304 305 305 306 308 309 308 309 309 308 308 309 309 309 310 311 311 312 312 311 311 312 313 313 315 315 315 316 319 323 327 326 320 316 317 318 318 319 319 319 320 320 320 321 321 320 319 320 320 320 319 320 321 322 322 322 322 322 322 322 322
300 300 300 299 299 300 298 296 295 295 294 292 292 293 293 293 296 299 299 298 298 296 295 298 303 305 305 305 306 307 309 309 309 308 309 309 309 309 309 309 310 311 311 310 311 311 311 312 312 312 314 316 315 314 318 322 324 322 317 316 317 318 318 318 319 319 319 319 319 319 320 319 319 319 320 319 318 319 320 321 321 322 322 321 321 321 321
300 300 300 299 299 300 298 296 296 296 294 293 295 298 299 299 301 303 303 303 301 298 296 299 303 305 305 306 308 309 308 308 308 308 309 310 309 309 309 309 309 310 310 309 309 309 311 311 311 312 316 315 311 311 316 319 318 316 316 317 317 317 317 317 318 319 318 317 318 318 319 319 318 318 318 318 317 317 318 318 319 320 320 320 320 320 320
300 300 299 299 299 299 298 297 299 299 297 296 300 302 303 303 304 304 304 305 303 300 299 301 302 304 307 309 311 311 308 307 307 308 309 309 309 309 308 308 308 310 310 309 309 309 310 309 310 313 315 314 312 315 320 321 317 315 317 318 317 316 317 317 317 318 318 317 318 318 317 316 316 316 316 316 315 315 317 317 318 319 318 318 319 319 319
300 299 298 299 299 299 298 300 302 302 301 301 302 303 303 304 304 303 304 304 303 302 303 304 304 305 307 309 310 309 307 306 307 308 308 308 308 308 306 307 310 311 309 308 309 311 311 310 310 311 311 312 315 318 318 317 317 317 316 316 317 316 316 316 317 316 316 316 316 316 315 314 315 316 316 315 314 315 316 317 317 317 317 317 318 318 318
299 298 298 299 299 299 300 303 304 303 302 303 303 303 303 303 303 302 302 302 302 303 303 304 306 306 306 307 307 306 306 307 308 308 309 308 307 306 305 307 310 310 307 308 311 311 310 310 310 310 311 313 314 313 312 312 315 317 315 315 317 316 315 316 316 316 316 316 315 314 314 314 315 317 316 314 314 315 315 315 315 316 316 316 317 318 318
298 298 299 299 298 297 301 304 303 302 303 303 302 302 302 302 301 302 302 302 303 303 303 303 303 303 302 304 304 304 306 307 307 308 310 310 308 308 307 306 307 307 307 311 312 308 307 311 310 309 311 312 309 308 310 311 312 313 313 314 316 316 316 317 317 316 316 315 314 313 314 315 315 316 315 314 314 314 314 314 314 315 316 315 316 317 318
298 298 299 299 297 296 298 300 300 300 302 301 301 302 302 302 302 303 303 303 305 305 304 304 303 302 301 302 302 302 304 305 306 309 311 310 309 310 308 306 306 307 308 311 310 307 309 314 311 308 313 316 311 307 309 310 309 311 313 314 315 316 317 316 316 316 315 314 314 314 314 314 315 315 315 314 314 313 313 313 313 314 315 316 316 317 317
298 299 299 298 297 296 296 295 295 296 298 299 301 302 302 302 303 304 304 305 306 306 305 305 305 304 303 302 303 303 304 305 308 311 312 310 309 308 306 306 307 306 307 310 311 308 309 312 310 309 315 318 313 308 308 309 310 312 314 314 315 316 316 315 315 314 314 313 314 314 313 313 314 314 314 314 313 312 312 312 313 313 314 315 316 316 316
299 299 298 297 296 296 297 296 295 295 296 299 302 303 302 302 303 303 303 305 306 306 307 307 307 307 306 304 304 304 304 305 308 309 309 311 310 307 306 308 307 304 307 310 310 308 309 309 309 312 316 315 310 309 310 311 311 313 314 315 315 314 314 314 314 313 312 312 312 312 312 312 312 312 313 313 312 312 312 312 312 312 313 314 314 315 315
298 298 297 296 296 297 298 298 298 298 300 301 302 303 303 303 303 303 303 304 305 306 307 307 307 308 308 307 306 306 306 307 307 307 309 311 309 306 308 310 306 305 309 311 308 307 307 306 307 312 314 311 309 311 311 311 311 312 312 313 313 313 313 313 312 312 312 311 311 311 312 312 311 312 312 312 312 312 312 311 311 311 312 312 312 313 314
297 296 296 297 297 298 299 299 299 301 302 302 302 303 304 303 303 303 304 305 304 304 306 307 307 308 309 309 308 308 308 308 308 308 309 310 309 306 307 307 307 308 311 311 308 307 307 309 312 314 312 309 310 312 311 310 312 311 310 310 311 312 312 312 311 311 311 311 311 311 311 311 311 311 311 311 311 311 311 311 311 310 310 310 311 312 312
296 295 296 297 297 298 300 301 300 301 302 303 303 304 304 305 306 305 305 305 305 304 305 307 308 308 309 309 309 309 309 308 308 307 307 307 308 307 306 308 313 313 310 307 308 308 309 312 315 312 308 308 311 312 311 312 313 311 309 309 311 312 312 311 311 311 311 310 311 311 311 311 311 311 311 311 311 310 310 310 310 309 309 309 309 310 310
296 296 297 297 297 298 300 301 301 301 302 303 303 304 305 306 307 306 305 304 304 303 304 306 308 308 309 309 308 309 309 307 307 308 307 307 308 308 307 310 316 313 308 307 309 308 308 312 312 307 307 310 312 310 311 313 313 311 310 309 310 311 312 311 311 311 310 310 310 310 310 311 311 310 310 310 310 310 310 309 309 308 308 309 309 309 309
296 296 296 297 298 299 300 301 301 301 302 302 302 303 303 303 303 303 303 302 303 303 304 306 307 308 308 308 308 308 308 306 305 307 307 306 308 308 307 307 309 309 308 309 308 307 311 315 313 307 307 311 311 310 311 313 313 312 311 310 309 310 311 311 311 310 309 309 310 310 310 311 310 310 310 310 309 309 310 309 309 308 308 308 308 308 309
296 296 296 296 298 299 299 300 301 301 301 300 300 300 301 301 302 303 303 303 303 304 305 306 307 308 308 307 308 309 308 306 306 307 307 306 308 310 308 307 308 309 307 306 308 313 316 314 309 307 308 310 310 310 312 313 313 313 312 310 310 310 310 310 310 310 309 310 310 310 310 310 310 310 309 309 309 309 310 309 308 308 308 308 308 308 309
296 296 296 297 298 299 300 300 300 299 299 300 299 299 300 301 302 304 305 304 304 304 305 306 307 308 308 307 308 309 308 306 305 307 308 307 308 309 308 307 308 309 308 310 316 322 319 312 306 308 310 310 309 311 312 313 313 313 312 311 311 310 310 310 310 309 309 310 310 310 310 310 310 310 309 308 308 308 310 309 308 307 308 309 309 309 309
295 295 296 296 297 298 298 298 298 297 298 298 298 299 299 299 300 303 304 304 303 304 304 305 306 309 308 307 307 308 308 307 307 308 308 307 307 308 308 307 307 309 313 317 320 319 313 308 306 308 309 309 310 311 311 312 313 313 312 312 312 311 311 311 310 309 309 310 310 310 310 310 310 310 309 309 308 308 309 309 308 307 308 309 309 309 309
295 295 295 295 296 297 297 298 298 299 299 297 297 297 298 297 299 302 304 303 302 303 304 305 307 309 308 306 305 307 309 308 308 307 308 309 309 309 309 307 306 308 311 313 311 308 306 306 307 308 308 309 310 311 310 311 312 312 312 312 312 311 311 310 310 309 309 309 309 310 310 310 310 310 309 309 308 308 308 308 307 307 308 309 309 309 308
295 295 295 295 296 297 297 298 298 298 297 296 296 297 297 297 299 302 303 302 301 303 305 305 306 307 307 306 306 307 307 306 306 308 309 310 310 309 309 308 308 309 309 308 307 308 308 308 307 308 309 309 310 311 311 311 311 311 312 312 312 311 311 310 310 309 308 308 309 310 309 309 310 310 309 309 309 308 308 308 308 308 309 309 309 308 308
295 295 295 295 295 295 296 296 296 296 296 296 296 297 297 298 299 301 303 302 301 302 303 303 303 304 306 307 307 306 305 306 307 310 311 310 309 309 309 309 309 309 309 308 308 309 309 308 308 309 309 310 311 311 311 310 310 311 312 312 311 311 310 310 310 309 308 308 309 309 309 309 310 309 309 309 309 308 308 308 309 309 309 309 309 308 308
Wind_Speed
22 22 22 21 22 23 24 24 25 26 29 31 29 25 17 10 10 11 11 11 9 5 2 2 3 4 4 4 7 9 7 5 4 5 6 6 5 5 5 5 5 4 3 2 2 1 2 4 6 5 5 8 13 13 13 15 8 3 3 4 6 6 2 2 2 1 0 3 4 3 4 5 5 3 2 3 3 4 5 5 4 3 3 2 3 3 5
22 22 22 22 21 22 23 23 23 23 24 25 25 23 17 14 14 11 10 10 8 4 1 3 3 4 4 5 8 9 8 7 7 5 4 4 3 3 4 4 4 4 2 2 3 3 3 3 5 7 4 5 17 18 14 18 10 4 5 4 3 4 2 3 3 2 2 1 3 2 1 2 4 3 3 4 4 4 2 2 3 1 4 5 5 4 5
22 22 22 22 21 22 23 23 22 21 20 20 21 20 18 14 10 7 10 10 8 6 4 4 3 4 5 6 7 7 6 8 10 8 6 5 3 2 3 3 3 4 3 4 6 6 5 4 5 5 4 2 10 14 16 21 14 11 13 9 2 4 2 3 5 5 6 6 5 4 2 2 3 2 3 4 5 6 3 1 3 0 3 4 5 5 4
22 22 22 21 22 22 22 22 22 20 19 19 18 16 13 9 4 5 9 8 7 9 9 6 3 3 4 4 4 3 2 5 8 8 6 7 6 4 3 4 4 4 4 3 5 6 7 7 4 4 4 3 4 11 18 21 18 17 18 15 4 3 1 2 6 5 6 7 6 6 5 3 3 3 1 3 5 7 5 4 4 4 3 2 4 5 6
23 22 22 22 22 22 22 23 22 20 19 18 16 14 10 6 3 4 7 6 5 6 7 4 2 2 2 2 3 3 3 5 3 4 4 6 7 4 3 4 3 3 3 2 3 4 4 5 5 4 5 5 2 10 15 16 20 19 15 14 3 5 3 1 5 4 6 7 6 4 6 5 4 5 1 3 3 8 8 4 5 4 4 3 6 6 10
23 23 22 22 22 22 22 23 22 21 20 16 14 13 9 4 4 7 8 5 3 5 7 8 7 5 3 1 2 4 5 6 3 3 4 4 6 4 2 3 5 5 3 1 2 4 6 4 4 3 3 4 1 6 8 10 18 16 8 9 2 5 2 4 2 3 3 2 1 2 6 5 5 7 4 3 4 8 7 5 6 6 5 6 7 8 11
23 23 23 22 22 22 23 23 22 22 21 16 14 13 9 6 6 8 10 8 9 13 16 16 12 6 2 2 2 3 5 7 5 1 1 2 3 5 1 4 5 4 2 1 0 2 3 4 4 3 5 7 1 4 4 7 11 8 4 4 1 3 2 4 1 1 4 3 4 6 6 5 4 5 6 5 5 7 7 5 5 6 5 6 8 7 5
24 24 23 23 21 21 22 23 23 23 21 17 15 15 12 9 7 11 15 13 13 16 15 13 10 4 1 2 3 2 4 6 6 2 2 1 1 5 3 6 6 3 5 3 2 4 2 3 6 3 6 7 2 4 4 5 5 3 2 2 3 2 3 4 1 3 5 4 3 8 7 4 6 5 6 5 5 3 2 2 4 5 1 1 7 9 3
25 24 24 23 22 21 21 22 23 24 23 20 17 15 12 11 12 14 14 10 8 11 12 9 6 3 1 2 3 2 3 4 5 4 4 4 3 4 2 4 4 4 7 4 4 7 6 7 11 10 5 4 7 4 3 7 5 3 2 1 3 1 1 4 3 4 4 5 4 7 8 6 5 6 7 4 3 1 2 2 4 6 6 4 4 7 4
25 25 24 23 22 21 20 21 22 22 23 22 18 14 13 15 17 17 12 6 5 8 9 7 6 4 3 6 6 4 5 6 3 3 4 4 3 3 1 2 4 5 7 8 11 16 18 19 22 23 15 10 15 17 8 12 9 5 3 3 1 1 2 2 2 4 4 6 4 7 7 6 2 6 6 4 1 2 2 1 4 6 9 7 5 6 7
25 25 24 23 22 21 20 20 20 21 21 21 18 14 14 16 19 18 11 4 4 7 6 5 5 4 8 14 11 5 6 7 2 1 2 3 5 5 2 5 4 4 6 12 19 24 28 29 29 30 22 15 20 20 11 14 11 8 7 4 1 2 2 0 1 4 2 6 4 7 5 2 5 6 5 4 2 4 5 2 4 5 4 6 5 4 7
26 25 24 23 22 21 20 19 19 19 18 18 16 11 9 12 16 15 8 4 6 8 6 7 8 8 12 18 15 8 7 9 6 5 5 4 7 7 1 6 4 4 11 19 24 26 25 21 18 17 14 12 13 8 7 7 5 8 12 10 4 2 2 0 0 4 1 3 6 6 1 5 6 6 4 4 4 6 7 3 2 4 4 9 9 9 11
25 25 25 24 22 21 20 19 17 18 17 17 15 9 6 10 13 12 10 5 5 5 7 11 16 15 14 16 14 10 10 13 11 8 5 5 5 5 2 4 5 8 17 23 24 19 11 7 6 3 3 2 3 8 7 2 1 5 9 10 7 5 3 1 1 3 2 2 4 3 5 6 5 7 6 2 2 4 6 4 3 3 4 10 14 14 15
23 24 25 25 23 21 20 18 17 17 17 16 14 8 5 8 11 12 12 5 4 10 12 9 12 14 15 16 14 11 12 14 14 9 5 4 4 5 8 9 10 14 16 16 15 8 2 2 4 3 4 5 5 4 1 1 1 4 6 7 6 7 5 2 2 2 3 3 2 1 3 4 4 4 3 2 2 2 5 4 2 4 3 5 12 15 13
22 22 23 25 24 21 19 18 17 17 17 16 13 6 3 5 8 10 11 8 7 10 8 4 9 15 14 14 14 10 8 9 9 8 7 5 5 9 15 18 17 16 12 6 4 3 2 2 4 3 4 3 4 2 3 3 1 0 5 7 6 6 5 3 2 2 2 4 3 1 1 2 5 5 5 4 4 6 7 5 1 5 5 1 9 14 12
22 21 21 23 24 22 19 18 17 17 17 16 12 6 2 3 6 8 11 10 5 6 9 10 14 17 13 13 15 10 5 5 6 5 5 7 10 16 20 19 15 16 15 7 2 3 3 2 2 2 0 0 2 1 2 1 2 4 4 7 10 8 5 4 5 3 2 4 3 2 2 3 6 7 8 7 5 6 6 5 2 7 5 2 6 12 12
22 20 20 22 24 22 19 18 18 16 16 16 12 6 3 2 6 8 9 8 7 12 14 10 13 15 10 9 11 10 8 8 6 3 4 6 9 15 20 19 15 18 19 9 1 4 5 2 2 3 0 1 2 2 1 1 2 4 5 6 8 6 5 4 3 1 1 3 2 2 2 3 4 5 7 7 6 7 7 2 5 8 7 3 7 13 14
22 20 20 21 24 22 19 18 18 17 16 17 13 6 3 1 6 7 9 10 8 11 11 9 15 17 10 6 10 13 13 11 5 3 4 4 6 12 16 14 11 14 15 8 2 4 5 3 3 2 1 3 2 2 0 1 1 2 0 4 4 3 3 2 2 1 1 2 2 1 3 3 4 5 5 5 5 7 4 5 7 7 9 6 8 20 21
21 21 20 21 23 22 19 18 18 17 17 17 14 6 2 1 5 6 9 9 5 12 20 20 17 15 10 10 16 18 16 13 8 5 3 3 9 15 10 5 8 10 8 5 3 3 4 3 3 1 2 3 3 2 1 1 2 1 3 4 2 1 1 1 2 2 1 2 3 1 3 3 3 4 2 4 5 2 3 6 4 7 10 6 7 24 30
22 23 21 21 22 21 19 19 18 17 17 17 16 8 2 1 5 6 7 9 10 21 27 18 12 16 19 19 21 21 18 16 11 6 2 5 14 16 5 3 8 10 5 4 4 3 3 2 3 1 2 2 2 1 2 2 3 1 1 2 2 3 2 1 2 3 1 3 3 1 2 3 5 5 4 5 3 4 6 4 2 4 7 4 8 22 32
24 24 22 22 22 21 20 19 18 18 17 16 16 12 2 1 5 4 6 9 12 17 19 18 23 29 26 21 19 17 16 18 17 13 11 12 14 10 2 2 6 5 2 3 2 2 2 2 2 1 1 2 2 1 2 2 4 4 0 2 1 2 2 2 3 2 3 3 1 2 5 5 8 4 2 2 2 4 4 3 1 1 3 6 11 21 30
24 24 23 23 22 21 20 19 18 18 17 15 17 15 7 3 3 4 9 12 15 20 24 29 31 25 16 13 15 14 15 20 23 19 18 15 8 6 3 4 3 2 2 2 1 1 2 2 2 2 1 2 2 2 1 2 2 4 3 2 2 1 3 3 3 1 2 5 4 3 2 5 11 9 5 5 6 7 6 3 3 3 2 7 14 22 29
24 24 24 23 22 22 21 19 19 19 17 15 15 16 14 9 5 7 11 13 17 23 26 24 20 14 12 13 13 15 18 19 19 17 16 15 6 2 2 4 1 2 5 2 2 1 1 0 1 1 0 1 2 2 2 2 1 3 3 2 1 3 3 1 3 1 1 2 1 1 3 8 14 14 12 11 10 8 7 7 7 6 4 8 16 24 29
23 24 24 24 23 23 22 20 19 19 18 17 15 15 16 12 9 12 14 13 14 17 16 16 15 12 14 18 14 12 14 11 10 13 12 14 12 4 2 5 5 2 4 5 4 1 1 1 1 2 0 1 1 0 0 1 1 1 2 2 3 4 4 3 3 3 3 1 3 2 2 7 11 12 12 13 12 9 8 8 8 7 6 8 15 21 23
22 23 24 24 24 23 22 20 19 19 18 17 16 15 15 11 9 12 14 11 11 9 7 12 13 8 15 23 18 10 10 9 7 8 10 16 20 14 6 4 5 4 3 3 3 2 1 0 0 1 0 2 2 1 1 1 1 0 1 1 2 4 6 4 3 3 2 3 5 4 1 6 9 7 6 9 11 10 10 9 7 6 6 8 11 14 16
21 22 23 24 24 24 23 21 20 19 18 18 16 15 14 12 9 11 11 9 8 7 6 9 11 12 20 24 13 6 8 10 9 11 10 12 19 19 14 8 6 5 5 4 6 7 4 2 1 1 0 3 4 3 1 2 2 0 1 1 3 3 5 2 2 2 1 1 2 1 4 6 7 6 5 5 6 7 8 8 6 5 6 8 10 10 10
20 21 22 24 24 24 23 21 20 19 18 18 16 15 14 11 7 7 5 2 4 5 3 6 16 25 29 22 9 7 11 11 10 12 11 8 13 17 18 13 8 7 7 7 8 8 4 2 1 3 3 4 5 3 2 2 1 2 0 3 2 1 1 2 4 3 1 3 4 4 4 2 3 7 7 4 2 3 5 5 5 5 7 9 11 11 10
19 20 21 23 24 24 23 22 20 19 19 18 15 12 10 6 2 2 2 2 4 6 6 13 26 31 26 17 11 10 11 11 11 9 7 7 8 10 13 13 9 7 7 6 5 3 3 2 2 4 4 4 3 2 1 0 2 2 2 3 1 2 3 2 4 4 4 4 4 4 4 4 4 7 8 5 3 3 4 4 4 4 6 10 12 13 12
19 19 21 22 24 24 24 22 20 19 19 18 14 9 3 0 1 2 2 1 4 9 14 19 22 19 17 16 15 11 9 10 10 5 5 7 6 5 6 8 9 9 9 7 4 2 2 3 3 2 2 3 3 1 0 2 1 2 4 4 3 4 5 4 6 4 1 1 4 4 5 6 7 8 8 6 5 4 4 5 4 3 3 9 12 12 11
19 19 20 22 23 24 24 22 19 18 17 17 15 7 1 2 3 5 5 3 0 7 11 10 8 13 20 23 18 13 10 9 8 5 5 6 6 6 6 7 9 11 10 8 4 2 2 3 3 2 3 4 3 1 1 2 2 3 5 6 6 7 6 4 5 3 2 2 4 5 6 8 9 8 8 6 5 4 4 4 4 4 4 8 11 11 9
18 18 19 21 22 24 23 20 17 16 16 16 13 7 1 2 4 7 5 1 5 10 11 7 10 17 21 19 16 16 15 12 9 7 7 7 7 7 7 7 7 7 8 8 5 3 3 3 2 2 3 4 3 1 2 3 1 4 6 7 7 7 6 4 4 5 6 5 5 6 6 6 6 5 5 5 4 4 3 2 2 3 5 7 8 9 9
17 17 18 20 21 23 22 18 15 15 16 16 14 10 7 4 5 6 7 10 13 14 10 6 8 9 8 12 18 18 13 11 11 10 9 9 9 9 8 9 7 6 6 5 4 3 3 3 3 2 3 4 3 1 3 4 2 4 8 10 8 6 5 4 5 6 6 6 6 6 5 4 4 4 4 3 3 3 4 4 3 3 5 6 6 7 8
16 16 17 19 22 23 20 16 15 16 17 16 14 9 5 4 4 5 6 9 11 10 6 3 3 3 5 14 19 14 12 14 14 11 10 10 8 6 6 8 9 7 5 4 3 2 2 3 3 1 2 4 2 2 2 2 4 5 10 11 8 6 5 4 5 6 6 4 4 4 4 5 6 5 5 4 3 4 6 6 6 5 5 5 6 7 8
15 16 17 19 22 22 19 15 13 13 12 11 8 5 4 1 2 2 2 4 7 6 5 4 3 3 6 11 10 7 11 15 12 9 9 7 6 6 4 4 5 4 4 4 3 2 3 3 3 1 2 2 1 2 1 5 5 6 10 10 8 7 6 6 7 8 6 4 3 3 6 7 6 5 5 5 4 5 7 7 8 7 6 5 5 6 7
14 15 18 20 21 20 16 12 9 8 6 5 3 3 3 2 3 4 5 6 6 4 4 4 4 3 4 6 5 5 12 14 11 10 8 5 5 7 5 2 1 2 4 4 3 2 2 2 4 2 2 1 1 1 4 5 4 8 10 9 10 11 10 9 10 9 7 5 4 5 6 6 5 5 5 3 3 4 6 6 7 7 6 5 5 6 6
14 16 18 20 19 16 11 7 4 4 4 4 5 5 5 6 8 10 11 10 9 7 5 4 3 3 1 2 4 7 12 12 11 12 10 5 4 6 5 3 1 3 4 2 1 1 3 4 4 0 2 0 2 4 6 8 11 12 11 11 13 13 11 10 12 12 9 7 7 6 5 4 5 7 5 2 2 3 4 4 5 6 5 4 4 6 8
15 17 17 17 16 11 6 3 3 3 5 6 7 9 10 10 11 12 14 14 13 13 11 6 4 5 5 4 4 6 8 8 8 10 9 6 4 3 2 2 1 2 1 1 1 2 3 5 3 1 1 2 3 4 8 12 14 13 11 11 12 11 11 12 14 13 10 7 6 6 5 4 7 8 5 3 3 4 3 3 4 6 7 6 7 10 10
14 15 15 15 13 7 2 3 4 5 5 7 8 9 9 8 6 6 8 9 9 11 12 8 7 10 9 6 7 9 7 6 7 6 4 4 5 3 1 1 0 1 1 2 3 2 1 1 2 1 2 3 3 7 9 11 12 11 10 10 10 11 13 15 15 13 11 7 6 7 7 7 9 10 7 5 5 4 3 1 1 4 6 6 8 12 13
13 13 13 12 10 6 5 7 10 11 10 9 8 6 4 3 2 2 5 6 5 7 10 8 10 13 12 7 11 18 15 7 4 3 2 3 3 2 0 1 1 1 2 2 3 2 1 2 1 1 2 4 2 9 10 9 9 8 7 7 9 11 14 15 12 10 8 5 4 7 9 9 11 11 10 9 8 7 6 5 3 2 2 2 5 9 12
11 12 12 12 12 10 10 11 12 12 10 7 5 4 3 3 3 3 4 3 3 5 8 8 10 16 19 15 12 14 13 9 6 4 4 3 3 1 1 1 0 2 1 3 3 2 2 1 1 1 2 5 5 11 12 9 9 8 7 9 11 11 12 11 8 6 6 4 3 5 7 8 9 11 12 13 12 10 8 7 5 4 4 4 4 6 8
12 12 12 13 14 13 12 9 7 7 5 3 2 2 2 3 4 4 3 2 2 4 8 8 6 9 17 22 18 12 10 12 12 8 5 3 3 1 0 1 1 2 0 3 3 2 3 1 1 1 4 6 11 14 13 11 10 9 8 8 9 9 9 7 5 3 4 5 5 6 6 7 7 8 10 12 11 9 7 5 4 3 4 4 5 6 7
13 13 13 13 13 11 8 4 2 4 3 2 1 2 1 2 3 3 3 3 3 3 6 8 6 5 10 16 19 14 9 9 9 7 3 3 3 3 1 1 1 1 2 4 1 3 2 0 1 4 6 11 17 18 15 12 10 8 6 6 6 6 5 6 6 5 5 6 7 7 7 6 6 7 8 9 8 6 4 3 3 3 4 4 5 7 7
11 11 11 11 10 6 4 2 3 3 1 1 1 1 2 2 2 2 2 4 5 3 2 4 6 7 6 6 10 12 10 8 7 5 2 2 2 1 2 2 0 2 3 1 3 3 1 2 3 5 9 16 20 19 15 12 10 8 7 7 7 5 4 6 8 9 8 8 7 6 5 6 6 7 6 5 5 4 3 3 3 4 5 6 6 6 6
8 6 5 7 5 2 1 1 3 3 1 0 2 2 2 3 2 2 2 3 3 4 8 10 7 5 4 3 2 6 8 7 5 3 2 2 1 1 2 1 3 2 0 1 2 0 3 3 3 5 11 19 21 19 16 14 13 10 9 10 10 8 6 7 8 8 8 6 6 5 5 6 7 7 5 3 2 1 1 1 0 2 4 5 5 5 5
4 1 1 3 3 1 0 1 3 2 1 2 3 3 3 3 3 3 6 9 10 14 19 18 10 5 4 4 2 3 4 3 2 2 2 1 1 0 1 3 2 1 2 1 1 1 1 3 4 5 15 22 22 19 16 16 15 12 11 13 13 9 6 6 6 5 4 4 4 6 7 7 7 6 4 2 1 1 1 2 2 3 3 4 4 4 4
2 1 1 1 2 2 1 1 1 1 2 2 1 2 3 5 6 8 14 19 20 21 21 17 10 6 4 2 1 2 4 2 2 3 2 2 1 2 2 2 1 2 2 1 1 1 3 5 6 9 19 24 22 19 17 17 17 14 12 13 14 11 8 8 7 4 2 3 5 6 8 8 6 4 2 1 1 1 1 2 2 2 2 3 3 4 4
2 1 0 1 2 3 2 2 3 4 4 5 9 11 11 11 12 14 17 20 21 20 16 12 8 4 2 1 0 2 4 3 2 3 2 2 1 1 0 2 1 0 2 1 3 4 5 5 7 12 20 22 20 19 19 19 18 15 12 13 14 12 11 11 8 5 4 6 7 7 8 8 5 4 3 1 0 1 2 1 2 1 1 3 3 3 4
2 0 1 1 1 2 3 2 4 8 11 12 14 14 15 16 16 16 18 21 20 17 13 8 4 2 1 2 1 0 2 3 3 3 2 1 1 1 2 2 1 1 2 3 4 5 4 5 9 16 21 20 20 20 20 19 18 16 14 14 15 13 11 11 9 6 7 9 9 9 11 10 6 5 5 2 1 2 3 2 0 1 2 4 5 4 5
3 2 2 3 2 4 7 7 8 9 11 13 14 14 16 18 19 18 19 23 25 23 17 8 3 1 1 1 2 1 1 2 2 1 0 1 1 1 1 1 1 2 2 3 5 5 7 9 9 14 18 19 20 20 18 17 17 16 15 14 14 12 11 10 9 9 10 9 7 8 12 12 8 6 6 3 1 3 4 2 0 2 3 4 4 4 6
5 5 5 5 4 5 7 8 6 5 7 11 15 16 18 20 20 17 17 21 26 24 16 6 1 1 1 1 1 0 1 2 2 1 1 0 1 1 2 2 1 3 5 4 4 8 9 5 9 13 14 16 19 19 16 15 15 14 13 14 14 12 11 11 11 10 10 8 5 7 11 11 9 7 5 3 2 4 4 2 3 5 5 5 5 5 6
4 5 7 9 10 8 7 6 5 5 6 11 16 18 19 20 20 17 16 21 23 17 8 3 2 0 2 1 1 1 2 2 2 1 1 1 1 2 3 1 3 5 5 5 9 9 3 8 15 14 12 15 18 16 13 12 12 12 12 13 13 12 12 13 12 10 8 7 6 6 8 10 8 6 3 1 2 4 4 4 6 6 5 5 6 6 7
5 5 6 9 13 14 14 13 12 12 12 15 18 18 18 21 21 18 15 17 16 11 6 5 4 1 2 0 2 2 1 1 0 1 1 2 1 2 2 3 2 2 8 13 15 12 7 9 11 11 10 13 15 13 11 10 11 11 11 12 12 11 12 12 10 8 7 9 8 6 6 9 9 6 3 4 6 6 5 6 8 7 5 5 5 5 6
Wind_Direction
345 347 348 351 353 351 353 358 358 353 348 347 350 352 348 334 310 317 332 310 270 227 220 234 203 227 259 263 263 267 270 265 255 251 248 232 210 214 226 238 237 227 220 230 264 260 227 238 227 226 237 210 217 228 194 180 202 210 193 234 216 207 181 156 215 276 266 318 354 83 139 146 150 171 157 131 147 157 148 168 182 168 189 160 115 186 266
345 347 348 350 353 353 354 359 3 359 351 344 342 342 337 318 305 316 334 307 263 215 251 256 236 258 265 271 271 260 252 256 253 252 257 231 187 206 229 230 223 226 234 218 245 273 255 269 259 231 240 217 218 222 179 164 196 222 182 198 198 194 196 120 124 92 94 303 323 346 35 130 167 202 179 164 163 161 169 143 108 146 212 158 138 195 250
345 346 348 350 353 353 354 1 6 2 352 344 340 337 334 323 306 314 328 303 251 221 245 256 270 291 283 282 282 270 256 250 239 237 256 250 225 233 251 260 255 243 242 229 242 252 228 247 292 256 252 242 216 212 179 171 196 222 217 236 262 164 176 106 127 151 167 182 203 210 202 185 187 176 174 182 159 155 188 151 102 254 239 149 146 193 247
345 347 349 349 351 353 355 1 7 6 356 348 347 343 338 333 321 324 327 308 249 241 252 252 260 291 297 288 279 268 270 268 247 231 242 251 246 260 263 264 276 249 229 241 253 250 220 217 266 284 272 287 199 180 176 183 202 219 236 264 294 111 107 115 133 157 177 186 215 204 158 162 193 157 145 239 179 139 118 112 148 191 191 184 209 175 142
346 347 349 349 350 352 354 359 7 11 3 352 352 354 350 337 325 330 330 314 266 256 256 242 234 249 263 317 320 303 288 297 274 202 223 240 223 235 254 235 253 258 245 260 262 273 268 235 255 278 266 276 216 164 167 190 211 215 240 272 279 84 355 286 139 168 194 190 222 204 138 134 168 154 147 277 190 122 106 145 192 161 141 233 246 165 139
348 347 348 349 350 351 353 358 5 11 11 2 357 7 15 355 309 314 327 319 287 309 301 291 296 279 231 236 320 304 293 306 304 197 241 250 202 202 288 236 240 259 263 276 271 297 324 305 277 290 284 295 322 143 154 200 218 214 240 279 263 97 331 270 196 233 234 154 113 120 131 137 143 149 171 239 179 135 133 185 190 148 163 216 216 174 158
349 348 348 349 351 351 353 356 1 11 17 11 9 21 21 353 308 309 326 315 289 299 302 303 312 310 249 245 277 287 299 310 313 227 223 305 206 181 201 276 265 275 314 46 318 297 332 320 301 331 336 323 346 126 157 210 212 201 216 264 312 101 247 269 242 323 346 26 64 65 89 133 149 159 178 186 169 154 154 178 171 158 192 202 164 149 154
352 350 349 349 351 351 353 356 360 8 15 17 28 34 19 359 339 319 319 313 295 299 309 316 320 316 290 277 260 261 284 298 311 289 175 10 234 176 201 290 291 331 2 21 214 241 239 253 269 301 354 337 322 125 136 180 177 157 199 279 24 68 241 276 19 48 349 328 53 51 51 124 173 211 214 172 133 123 141 155 154 150 131 76 132 125 86
354 352 350 349 351 352 353 356 359 5 11 15 27 35 21 5 355 333 319 310 308 319 325 326 318 315 338 305 292 297 281 279 309 298 222 199 209 203 223 318 325 348 351 337 272 279 269 245 254 259 253 265 274 271 149 151 159 169 169 44 20 55 260 312 24 62 323 309 54 48 32 81 147 239 247 199 141 152 197 185 189 165 119 79 117 135 144
353 354 351 348 350 352 353 355 360 5 10 11 14 17 9 359 353 345 329 296 305 331 328 323 328 327 317 315 315 304 281 277 303 329 266 224 241 264 160 72 8 348 336 316 302 296 285 275 278 278 264 244 268 272 221 154 150 162 137 78 356 138 84 346 45 84 299 301 61 67 47 75 162 248 232 190 170 183 178 221 235 184 135 131 172 179 172
352 353 352 349 349 351 352 354 359 4 7 8 4 360 1 355 344 338 329 285 306 336 329 330 348 331 315 324 330 326 303 300 268 167 273 288 316 325 101 98 33 322 288 301 310 307 298 292 288 285 276 256 255 256 208 150 144 149 136 108 295 240 120 175 142 110 287 302 34 61 59 127 228 245 195 167 163 156 154 181 237 213 139 134 160 159 157
349 350 351 350 348 350 352 353 356 2 6 5 3 5 10 358 343 335 326 296 312 331 335 322 314 308 317 327 333 338 333 324 300 254 242 269 308 319 97 126 128 274 296 310 315 313 308 303 294 284 273 251 233 207 136 124 150 157 148 142 161 189 135 97 55 111 137 335 48 70 188 227 248 279 256 209 176 154 146 127 252 235 144 122 124 139 163
346 347 350 352 349 347 350 351 353 358 1 2 8 19 16 359 352 340 326 307 295 320 329 309 302 309 326 331 332 336 338 341 335 309 262 247 289 321 327 170 196 282 309 312 311 311 309 305 311 309 302 315 119 118 111 112 191 160 147 139 140 143 131 87 43 100 115 39 75 140 232 261 289 314 298 237 120 109 121 94 350 290 168 144 146 162 178
345 346 348 350 349 346 347 349 351 352 356 3 9 20 21 5 360 346 335 323 287 306 311 302 308 325 334 331 331 335 341 353 358 346 319 281 273 301 324 328 327 325 318 305 302 317 359 353 354 17 5 20 84 118 75 35 127 145 132 123 127 128 119 75 33 74 129 111 95 215 283 313 318 322 295 197 145 140 145 134 301 291 270 172 162 166 173
345 344 345 346 346 346 345 346 348 348 351 2 11 29 54 2 356 350 337 321 303 304 299 292 328 330 326 323 329 337 343 354 356 338 329 334 324 332 347 352 352 350 343 316 303 356 48 23 28 49 14 27 130 171 336 6 330 214 113 104 96 98 110 129 98 30 94 99 63 12 27 283 254 257 266 254 219 185 146 106 321 281 311 304 166 165 159
346 343 343 343 343 345 346 345 347 347 347 358 15 46 95 346 341 344 332 319 302 290 289 299 320 322 315 316 326 335 337 338 342 332 339 350 339 343 357 7 11 9 8 11 14 21 36 41 53 94 187 268 138 163 320 13 341 337 30 74 73 65 68 103 94 29 39 98 101 158 182 232 241 251 273 268 215 167 117 74 295 269 309 7 161 164 151
348 344 341 342 342 343 346 344 345 347 345 352 10 42 93 346 330 336 338 328 294 285 291 310 332 331 324 318 328 338 337 332 344 352 327 323 322 332 347 358 14 19 16 18 51 23 32 38 23 55 76 307 100 139 257 44 50 331 347 41 58 49 33 56 74 15 36 105 116 197 211 248 256 268 270 239 177 111 87 105 247 267 303 330 163 166 160
350 346 340 341 341 342 345 344 344 347 344 347 1 31 105 337 331 332 334 331 307 283 289 316 323 317 314 308 309 316 322 322 323 315 293 280 302 322 332 346 12 18 13 16 53 29 34 25 353 39 31 329 22 116 244 319 173 239 340 66 61 43 34 64 125 147 104 110 120 258 262 265 276 286 269 205 136 78 87 200 230 276 303 316 164 168 167
351 347 341 340 342 343 344 343 343 345 344 344 353 15 132 288 336 332 327 331 302 283 301 314 311 304 311 312 299 300 313 314 304 310 320 307 328 330 329 4 23 8 1 19 44 35 41 15 324 49 59 341 352 72 8 285 238 205 128 113 104 99 44 50 144 160 166 130 126 274 270 259 274 299 355 84 101 105 216 220 255 288 290 303 166 169 170
349 348 344 342 342 344 343 341 342 343 342 341 345 358 95 68 353 345 332 328 298 293 306 322 324 311 311 306 296 297 307 311 309 321 328 315 334 345 6 48 4 354 358 29 25 13 35 2 319 6 41 334 320 42 3 314 302 318 129 144 163 161 160 264 202 184 136 89 72 73 203 260 311 335 25 52 103 191 216 229 300 291 270 259 175 171 174
347 347 346 343 342 343 342 340 340 340 340 339 338 339 1 71 350 321 298 306 295 289 303 320 318 311 306 302 302 298 289 292 301 301 284 301 337 10 98 258 327 341 7 29 7 337 9 357 325 1 14 326 341 41 24 339 322 319 324 125 108 136 158 195 217 195 125 124 182 209 206 270 329 354 138 131 116 153 180 202 226 287 247 216 186 177 179
345 346 345 343 341 342 341 340 339 337 336 337 334 328 316 325 342 294 282 287 276 273 289 305 308 306 307 319 331 329 312 310 315 304 277 279 328 50 146 252 301 324 322 10 75 336 340 352 355 15 2 335 351 352 40 78 350 318 336 66 86 238 214 176 163 164 150 166 196 221 237 348 15 38 74 82 85 106 122 121 90 84 161 198 183 177 178
344 344 345 343 340 339 339 339 338 335 333 334 330 321 316 325 338 312 304 303 295 291 296 304 306 309 325 337 343 337 326 326 330 319 283 259 259 89 187 236 186 13 324 294 170 203 305 255 32 44 77 319 354 340 340 43 18 307 336 19 249 267 282 144 124 84 52 95 85 72 46 36 43 55 61 67 80 93 88 73 69 82 127 178 176 173 174
341 343 344 343 341 338 337 337 336 333 331 331 326 317 317 325 334 324 318 319 321 319 314 309 307 316 331 334 332 330 332 336 331 319 291 255 243 234 243 229 186 161 292 261 215 226 294 284 2 54 50 301 341 18 211 7 340 306 6 347 300 317 355 45 93 79 79 52 335 328 39 42 49 60 61 65 76 78 73 73 78 84 101 141 160 164 166
339 341 342 342 341 338 336 335 333 331 329 329 326 319 316 322 330 324 318 318 324 327 317 306 305 315 329 326 320 316 332 344 327 303 279 255 247 245 261 260 207 204 282 274 222 226 249 248 68 77 67 265 259 239 194 206 245 255 59 24 273 321 354 27 73 63 111 210 272 278 107 66 61 67 58 61 75 77 70 75 86 95 104 124 143 153 158
336 338 340 340 340 338 335 332 331 330 329 329 330 325 320 323 323 309 303 307 305 288 269 285 295 316 328 326 321 324 334 337 328 318 307 270 250 249 261 265 229 230 272 274 248 238 214 150 131 130 174 222 209 210 258 244 229 100 82 220 242 298 332 5 87 57 44 226 254 189 101 75 80 103 95 67 76 81 76 77 85 110 131 140 146 152 160
333 336 337 338 339 337 334 331 329 329 328 328 332 332 324 320 313 291 280 278 287 278 249 267 292 313 326 327 326 341 340 336 331 324 312 276 248 247 251 249 240 242 245 242 247 239 203 137 159 182 193 209 199 199 257 264 34 69 237 273 309 21 340 25 84 101 164 216 209 170 135 125 126 116 108 98 86 82 90 95 96 117 148 163 163 159 163
331 333 334 335 337 336 333 329 327 328 328 329 337 346 336 318 274 209 206 220 272 275 267 283 296 309 322 328 331 338 339 341 342 326 286 256 237 231 235 238 245 263 258 241 241 226 170 154 202 193 182 178 183 214 266 229 36 16 255 264 347 138 188 175 137 166 214 222 201 171 151 164 148 112 111 129 131 91 94 108 103 117 159 173 170 162 161
326 331 331 332 334 334 332 329 327 328 327 329 341 359 10 332 181 195 209 251 285 284 286 292 299 305 310 316 325 334 342 348 347 323 255 241 233 224 230 234 245 268 270 250 233 225 213 222 230 221 181 166 175 230 218 143 159 259 235 231 231 216 208 175 153 172 253 147 151 145 128 129 127 116 120 137 140 113 102 106 95 85 160 183 182 174 168
320 326 328 329 331 332 329 327 328 326 323 328 339 352 103 163 236 230 203 148 142 305 306 301 293 300 305 312 325 336 339 342 339 309 272 261 253 241 231 240 261 272 263 245 238 260 271 264 256 239 216 188 173 164 154 161 212 262 239 222 219 214 203 171 152 161 155 141 158 152 130 125 128 127 123 125 140 144 120 105 92 87 142 182 187 183 178
315 322 325 327 329 329 326 325 326 323 317 320 326 325 253 174 202 202 191 201 309 314 318 298 281 295 303 311 326 332 329 328 329 314 293 282 277 264 248 252 266 255 230 226 234 238 252 264 239 212 219 206 181 138 132 143 231 279 240 208 191 188 184 160 144 151 149 145 158 165 156 147 147 145 130 124 144 165 153 136 123 113 141 169 176 179 188
311 319 323 326 327 327 325 323 320 314 306 303 304 299 286 271 235 227 255 282 291 299 308 301 293 296 299 314 327 335 340 340 335 326 310 293 286 282 269 257 252 233 211 210 217 230 247 235 211 227 245 217 197 100 99 134 193 239 212 193 180 178 181 161 145 151 152 152 160 166 170 166 156 156 156 152 178 209 207 203 199 168 160 174 176 177 188
310 317 321 324 326 325 322 316 309 303 298 299 306 316 312 271 234 236 259 275 285 289 280 280 300 265 277 310 325 347 8 355 338 327 318 300 276 264 261 249 239 230 214 204 204 234 250 216 196 245 257 211 187 76 99 200 236 207 188 188 187 184 189 183 167 166 171 183 198 204 198 178 156 151 168 181 203 226 228 229 228 207 186 194 195 184 187
308 317 319 321 324 323 317 310 305 302 301 307 324 4 32 23 222 226 267 295 303 288 248 239 266 267 294 310 317 350 5 349 332 322 321 304 255 233 239 238 224 207 208 223 228 239 257 231 188 181 244 233 98 77 227 261 256 173 169 187 197 181 169 165 164 170 182 200 219 206 183 172 161 163 180 190 204 226 238 243 240 227 214 222 223 204 201
308 314 316 317 322 323 317 312 309 306 311 326 342 9 22 358 323 315 307 299 294 271 237 239 242 249 312 314 295 334 351 343 327 319 316 290 248 240 230 194 143 195 216 223 213 211 241 201 161 170 253 279 87 199 242 253 209 162 166 187 190 175 160 150 147 152 161 166 163 158 157 162 172 180 185 190 206 227 240 243 236 230 233 248 246 222 211
307 312 316 318 323 325 319 312 307 301 317 335 329 322 322 311 300 298 291 278 265 250 250 268 248 220 240 273 270 313 332 333 332 334 329 307 269 251 220 161 151 224 213 190 188 250 219 178 157 244 307 227 211 234 213 180 171 174 181 188 185 180 178 173 163 156 154 154 153 155 164 188 191 183 183 193 207 223 245 252 238 233 237 242 230 211 206
309 317 321 322 325 326 313 285 277 295 317 322 314 309 305 291 282 278 269 262 256 247 241 252 264 245 241 255 280 309 327 331 334 337 333 326 309 274 224 147 188 232 237 16 286 238 191 164 142 68 263 216 213 202 167 153 160 173 177 178 183 188 186 179 170 160 157 159 167 176 189 204 198 195 205 230 225 230 256 267 247 238 237 231 211 201 203
316 321 322 323 327 328 289 245 257 274 301 314 310 304 294 277 269 261 245 240 245 238 228 230 252 249 241 250 265 266 280 330 347 338 326 331 334 324 332 44 206 235 354 298 252 214 134 98 97 137 252 261 178 150 141 132 140 153 161 169 183 186 178 174 173 170 167 175 196 199 197 197 198 201 211 221 217 211 194 167 212 240 245 241 216 201 199
322 323 321 321 320 306 274 272 273 272 283 299 301 294 271 240 233 232 212 204 214 222 215 219 240 237 223 223 258 261 260 277 333 321 288 313 324 315 20 6 313 76 49 304 262 183 106 330 341 122 279 293 175 149 143 131 131 141 147 155 168 173 169 167 169 170 171 186 216 209 205 209 211 210 212 209 199 182 166 166 183 204 210 211 194 188 191
324 323 322 319 315 306 297 289 279 273 277 285 280 263 240 224 224 210 189 187 208 213 210 220 241 238 226 224 248 265 252 228 223 251 262 260 260 262 51 357 244 104 76 282 258 151 122 310 335 110 259 268 191 154 148 145 142 138 131 135 147 158 163 161 155 150 156 168 191 198 202 209 211 211 208 202 192 175 166 172 185 190 184 179 173 177 187
329 326 321 318 318 316 312 299 271 250 245 234 226 239 236 224 230 225 206 214 256 226 216 216 225 234 229 226 230 243 243 231 235 251 266 254 238 221 91 222 182 86 23 254 238 108 94 79 330 262 235 205 168 154 152 153 151 148 145 145 146 148 155 164 166 160 159 161 165 172 174 172 171 177 184 188 187 180 172 172 183 202 212 212 205 202 206
325 318 315 317 321 322 321 307 210 190 193 187 210 265 255 224 240 240 214 220 254 249 224 218 222 247 246 231 226 231 243 244 240 241 253 258 232 200 188 324 47 80 237 233 163 69 57 68 291 274 225 178 162 160 160 158 155 156 164 175 172 162 162 168 162 150 149 151 149 150 152 152 149 153 165 177 183 182 182 200 231 245 250 246 232 221 217
316 304 307 318 321 324 328 290 196 181 168 119 154 287 282 255 252 252 231 234 242 248 263 265 267 279 285 249 228 232 241 248 245 230 210 240 243 170 81 25 68 190 229 230 80 72 149 200 223 238 203 175 168 168 167 163 162 159 158 169 171 162 156 157 145 134 135 141 139 137 144 151 147 142 150 169 180 177 181 203 233 258 267 263 252 239 227
312 288 297 315 310 310 356 261 190 165 120 278 181 181 259 271 255 241 264 278 280 297 313 318 312 291 292 315 273 241 237 241 253 248 221 231 256 79 83 244 239 227 238 47 66 123 224 229 242 219 187 176 175 173 169 169 171 160 146 151 154 141 133 147 147 133 125 131 139 146 152 152 146 140 138 140 149 166 191 186 227 293 281 266 257 249 235
322 291 356 338 299 244 218 245 209 187 222 241 197 177 209 236 224 237 277 294 301 303 303 302 294 270 279 308 312 265 252 249 264 265 243 178 116 133 207 225 232 68 60 34 349 335 255 272 275 205 177 175 176 174 173 179 180 165 147 151 160 159 158 167 165 148 129 133 150 160 163 157 149 145 145 132 101 44 346 345 348 327 296 270 267 265 243
297 321 29 350 275 253 224 205 220 210 197 206 237 258 256 256 265 284 295 293 289 292 300 300 285 264 284 320 316 279 291 293 240 236 225 107 108 239 226 177 82 40 42 27 323 249 226 256 258 202 177 173 173 176 181 185 183 173 160 158 163 169 178 181 179 178 186 185 177 171 170 168 163 157 160 149 102 25 330 327 335 323 280 249 256 261 243
268 308 350 233 277 279 239 216 254 276 292 325 330 322 319 318 314 317 319 308 291 286 294 297 281 263 285 6 67 288 298 300 256 234 207 127 147 267 346 80 86 174 138 165 252 252 242 249 233 194 178 174 176 183 187 187 184 182 174 164 161 162 168 172 172 165 172 188 194 190 184 187 203 224 224 212 27 302 259 277 345 349 246 220 227 242 256
243 156 203 234 259 233 220 262 312 304 305 323 332 333 337 339 333 331 336 334 325 317 312 299 274 270 353 35 70 8 294 297 280 249 220 141 102 2 22 30 295 238 186 192 212 220 231 235 210 189 182 182 185 186 186 187 188 186 178 171 169 167 167 172 174 167 169 184 201 208 203 201 207 215 213 221 332 254 220 215 357 324 249 240 244 263 288
234 225 244 267 274 258 266 295 319 312 306 316 328 338 345 342 332 327 336 341 340 337 333 317 263 226 316 4 63 81 281 287 285 272 324 55 87 152 144 134 250 290 281 219 207 238 276 270 224 191 186 188 188 184 180 183 187 185 180 178 178 176 177 184 188 183 182 190 202 206 201 200 203 209 210 210 210 200 195 186 268 264 258 263 269 285 303
233 236 239 241 255 282 294 301 306 303 313 323 328 332 336 333 325 327 342 345 338 334 332 325 241 159 51 16 39 105 240 257 271 294 342 288 202 169 111 102 203 253 257 252 276 301 297 253 171 161 169 177 178 174 171 173 181 184 182 180 179 178 183 189 185 178 183 198 206 200 199 202 204 201 196 183 173 180 183 206 247 247 256 273 283 295 309
227 243 243 235 236 251 272 283 282 284 298 306 310 315 320 318 311 314 334 342 341 340 343 325 285 346 72 56 284 234 207 224 252 293 302 265 206 104 90 132 219 246 278 330 359 0 6 147 142 138 145 159 166 168 166 167 174 178 176 176 178 179 182 184 177 169 175 190 192 190 198 203 198 185 172 186 198 190 198 229 240 242 255 277 293 312 325
213 236 254 253 250 253 258 265 272 276 279 284 292 302 310 311 308 307 319 337 345 347 335 312 305 333 113 185 277 259 197 201 276 352 318 295 328 92 142 196 215 338 0 15 31 44 78 126 132 133 145 158 163 165 161 160 167 174 176 178 177 174 174 178 177 167 171 184 188 187 190 193 191 188 197 214 208 201 211 231 234 233 245 271 300 333 342